Total_Precipitation_Accumulation
0.03 0.03 0.02 0.03 0.04 0.04 0.04 0.03 0.02 0.02 0.02 0.03 0.03 0.37 0.55 0.41 0.50 0.55 0.70 0.71 0.57 0.41 0.44 0.48 0.41 0.41 0.54 0.55 0.52 0.60 0.81 0.78 0.54 0.24 0.32 0.35 0.29 0.31 0.29 0.28 0.27 0.27 0.20
0.05 0.05 0.07 0.13 0.16 0.18 0.16 0.14 0.10 0.07 0.06 0.04 0.04 0.25 1.19 1.00 0.62 0.52 0.56 0.41 0.63 0.61 0.54 0.48 0.49 0.46 0.43 0.43 0.51 0.50 0.44 0.47 0.52 0.29 0.20 0.27 0.34 0.36 0.29 0.32 0.40 0.48 0.34
0.07 0.09 0.13 0.16 0.18 0.19 0.25 0.30 0.23 0.25 0.27 0.16 0.18 0.53 0.89 1.36 0.93 0.68 0.60 0.77 0.52 0.80 0.85 0.66 0.53 0.61 0.55 0.42 0.36 0.37 0.41 0.39 0.35 0.34 0.22 0.27 0.27 0.36 0.36 0.23 0.23 0.30 0.47
0.06 0.12 0.21 0.26 0.31 0.29 0.27 0.39 0.43 0.38 0.37 0.44 0.47 0.81 0.99 0.84 1.06 0.91 0.75 0.59 0.67 0.49 0.55 0.77 0.68 0.62 0.79 0.66 0.47 0.40 0.33 0.31 0.33 0.37 0.32 0.32 0.26 0.20 0.24 0.23 0.25 0.31 0.26
0.01 0.05 0.09 0.15 0.38 0.35 0.28 0.34 0.42 0.38 0.32 0.32 0.36 0.66 1.24 1.14 0.87 0.93 0.96 0.72 0.70 0.71 0.52 0.44 0.53 0.62 0.59 0.56 0.39 0.36 0.36 0.34 0.30 0.35 0.41 0.36 0.32 0.30 0.25 0.21 0.18 0.20 0.41
0.00 0.01 0.03 0.05 0.15 0.19 0.20 0.19 0.17 0.17 0.22 0.35 0.46 0.68 0.98 1.54 1.30 0.94 0.84 0.91 0.82 0.72 0.74 0.61 0.44 0.42 0.45 0.48 0.57 0.47 0.36 0.41 0.44 0.41 0.33 0.39 0.40 0.43 0.34 0.28 0.34 0.31 0.21
0.00 0.00 0.00 0.00 0.01 0.00 0.01 0.02 0.02 0.04 0.08 0.20 0.39 0.53 0.73 1.06 1.36 1.30 1.14 0.95 0.88 0.87 0.86 0.75 0.61 0.57 0.53 0.39 0.40 0.40 0.39 0.41 0.42 0.52 0.62 0.57 0.52 0.46 0.37 0.43 0.42 0.32 0.31
0.00 0.00 0.00 0.01 0.00 0.00 0.00 0.00 0.00 0.00 0.01 0.02 0.07 0.14 0.22 0.37 0.59 0.82 1.05 1.08 1.09 0.96 0.81 0.86 0.82 0.68 0.61 0.70 0.66 0.53 0.46 0.40 0.47 0.39 0.48 0.82 0.91 0.76 0.62 0.48 0.47 0.49 0.37
0.00 0.01 0.01 0.02 0.00 0.00 0.00 0.00 0.00 0.00 0.00 0.00 0.00 0.01 0.03 0.07 0.11 0.16 0.20 0.38 0.55 0.77 0.84 0.80 0.76 0.73 0.64 0.57 0.63 0.77 0.83 0.79 0.74 0.65 0.56 0.53 0.66 0.77 0.78 0.76 0.72 0.56 0.60
0.01 0.01 0.00 0.02 0.01 0.00 0.00 0.00 0.00 0.00 0.00 0.00 0.00 0.00 0.01 0.02 0.02 0.02 0.03 0.04 0.08 0.12 0.18 0.24 0.31 0.38 0.42 0.41 0.39 0.43 0.55 0.72 0.85 0.85 0.71 0.52 0.39 0.40 0.56 0.62 0.77 0.92 0.86
0.00 0.00 0.00 0.00 0.02 0.00 0.00 0.00 0.00 0.00 0.00 0.00 0.00 0.00 0.00 0.01 0.01 0.01 0.00 0.01 0.02 0.03 0.04 0.06 0.08 0.07 0.08 0.10 0.13 0.17 0.23 0.28 0.35 0.46 0.60 0.71 0.70 0.61 0.50 0.51 0.57 0.69 0.74
0.00 0.00 0.00 0.00 0.01 0.01 0.00 0.00 0.00 0.00 0.00 0.00 0.00 0.00 0.00 0.01 0.01 0.00 0.00 0.00 0.00 0.01 0.03 0.02 0.02 0.02 0.03 0.03 0.04 0.05 0.05 0.03 0.03 0.05 0.11 0.18 0.29 0.41 0.53 0.56 0.57 0.65 0.74
0.00 0.00 0.00 0.00 0.00 0.02 0.01 0.00 0.00 0.00 0.00 0.00 0.00 0.00 0.00 0.00 0.00 0.00 0.00 0.00 0.00 0.00 0.00 0.00 0.00 0.00 0.00 0.00 0.01 0.01 0.03 0.03 0.04 0.03 0.03 0.03 0.03 0.04 0.05 0.07 0.14 0.23 0.35
0.00 0.00 0.00 0.00 0.00 0.00 0.03 0.01 0.00 0.01 0.00 0.01 0.01 0.01 0.01 0.00 0.01 0.00 0.00 0.00 0.00 0.00 0.00 0.00 0.00 0.00 0.00 0.00 0.00 0.00 0.01 0.01 0.02 0.03 0.03 0.01 0.00 0.00 0.02 0.03 0.04 0.06 0.08
0.00 0.00 0.00 0.00 0.00 0.00 0.01 0.05 0.01 0.01 0.00 0.01 0.03 0.02 0.03 0.03 0.02 0.01 0.00 0.00 0.00 0.00 0.00 0.00 0.00 0.00 0.00 0.00 0.00 0.00 0.00 0.00 0.01 0.01 0.01 0.01 0.01 0.00 0.01 0.01 0.01 0.01 0.02
0.00 0.00 0.00 0.00 0.00 0.00 0.00 0.00 0.01 0.00 0.00 0.00 0.00 0.00 0.00 0.01 0.00 0.00 0.00 0.00 0.00 0.00 0.00 0.00 0.00 0.00 0.00 0.00 0.00 0.00 0.00 0.01 0.01 0.01 0.01 0.01 0.02 0.01 0.01 0.01 0.01 0.01 0.02
0.00 0.00 0.00 0.00 0.00 0.00 0.00 0.00 0.00 0.00 0.00 0.00 0.00 0.00 0.00 0.00 0.00 0.00 0.00 0.00 0.00 0.00 0.00 0.00 0.00 0.01 0.01 0.01 0.01 0.01 0.01 0.01 0.01 0.01 0.01 0.02 0.02 0.01 0.02 0.02 0.02 0.02 0.02
0.00 0.00 0.00 0.00 0.00 0.00 0.00 0.00 0.00 0.00 0.01 0.01 0.00 0.00 0.00 0.00 0.00 0.00 0.00 0.00 0.00 0.00 0.00 0.00 0.01 0.01 0.01 0.01 0.01 0.01 0.01 0.01 0.01 0.01 0.01 0.01 0.02 0.02 0.03 0.03 0.03 0.05 0.06
0.00 0.00 0.00 0.00 0.00 0.00 0.00 0.00 0.00 0.00 0.00 0.00 0.00 0.00 0.00 0.00 0.00 0.00 0.00 0.00 0.00 0.00 0.00 0.00 0.00 0.00 0.01 0.01 0.01 0.01 0.01 0.01 0.01 0.01 0.01 0.01 0.02 0.02 0.02 0.03 0.04 0.04 0.06
0.00 0.00 0.00 0.00 0.00 0.00 0.00 0.00 0.00 0.00 0.00 0.00 0.00 0.00 0.00 0.00 0.00 0.00 0.00 0.01 0.00 0.01 0.01 0.00 0.00 0.00 0.00 0.01 0.01 0.01 0.01 0.01 0.01 0.01 0.02 0.02 0.02 0.02 0.04 0.04 0.05 0.07 0.09
0.00 0.00 0.00 0.00 0.00 0.00 0.00 0.00 0.00 0.00 0.00 0.00 0.00 0.00 0.00 0.00 0.00 0.01 0.01 0.01 0.01 0.01 0.01 0.01 0.00 0.00 0.00 0.01 0.01 0.01 0.01 0.01 0.01 0.01 0.02 0.02 0.02 0.03 0.04 0.05 0.06 0.06 0.08
0.00 0.00 0.00 0.00 0.00 0.00 0.00 0.00 0.00 0.00 0.00 0.00 0.00 0.00 0.00 0.00 0.01 0.01 0.01 0.01 0.02 0.01 0.01 0.00 0.01 0.00 0.00 0.01 0.01 0.02 0.01 0.01 0.01 0.01 0.01 0.02 0.02 0.03 0.04 0.05 0.06 0.08 0.09
0.00 0.00 0.00 0.00 0.00 0.00 0.00 0.00 0.00 0.00 0.00 0.00 0.00 0.01 0.00 0.01 0.01 0.01 0.01 0.02 0.02 0.01 0.01 0.01 0.01 0.01 0.01 0.00 0.01 0.02 0.02 0.02 0.02 0.03 0.03 0.03 0.03 0.04 0.05 0.07 0.08 0.10 0.11
0.00 0.00 0.00 0.00 0.00 0.00 0.00 0.00 0.00 0.00 0.00 0.01 0.01 0.02 0.01 0.01 0.01 0.01 0.01 0.02 0.01 0.01 0.01 0.01 0.01 0.01 0.00 0.01 0.00 0.01 0.01 0.01 0.00 0.00 0.01 0.02 0.02 0.03 0.05 0.06 0.08 0.10 0.13
0.00 0.00 0.00 0.00 0.00 0.01 0.01 0.01 0.01 0.01 0.01 0.01 0.02 0.01 0.01 0.01 0.01 0.01 0.01 0.01 0.01 0.00 0.01 0.00 0.01 0.01 0.00 0.00 0.00 0.01 0.00 0.00 0.00 0.00 0.00 0.00 0.01 0.02 0.04 0.06 0.09 0.11 0.13
0.00 0.00 0.00 0.00 0.01 0.01 0.01 0.01 0.02 0.01 0.01 0.01 0.02 0.02 0.02 0.01 0.01 0.01 0.01 0.01 0.01 0.01 0.00 0.00 0.00 0.00 0.00 0.00 0.00 0.01 0.00 0.00 0.00 0.00 0.00 0.00 0.00 0.00 0.01 0.03 0.06 0.10 0.13